{"data":{"norad_id":57952,"intl_designator":"2023-148T","name":"STARLINK-30713","alt_names":[],"object_type":"PAYLOAD","status":"ACTIVE","operator":null,"country":"US","launch_date":"2023-09-25","launch_site_code":"AFWTR","launch_vehicle":null,"mission":null,"orbit_class":"UNKNOWN","rcs_meters":null,"size_class":null,"mass_kg":null,"dimensions":null,"purposes":["comms"],"wikipedia_slug":null,"has_3d_model":false,"image_url":null,"decayed_at":null,"tle_current":{"epoch":"2026-09-20T04:52:58.916352Z","epoch_age_seconds":163272,"freshness":"FRESH","line1":"1 57952U 23148T   26263.20345968  .00000531  00000+0  26858-4 0  9993","line2":"2 57952  53.1607 197.2204 0001280  93.0128 267.1021 15.34385857168251","mean_motion":15.34385857,"eccentricity":0.000128,"inclination_deg":53.1607,"raan_deg":197.2204,"arg_perigee_deg":93.0128,"mean_anomaly_deg":267.1021,"bstar":2.6858e-5,"rev_number":16825,"period_min":93.848623110712,"perigee_km":461.8696435751,"apogee_km":463.62090943788,"semimajor_km":6840.8822765065,"source":"CELESTRAK","updated_at":"2026-09-21T09:00:33.747691Z"}}}